| time (UTC) | temp F | wind direction | speed knots | gust knots | rain 1hr in | rain 24hr in | rain mn in | humidity % | barometer mb |
| 20260901203046 | 51 | 351 | 0.0 | 0.0 | 0.00 | 0.01 | 0.00 | 85 | 1016.5 |
| 20260901201542 | 51 | 296 | 0.0 | 0.0 | 0.00 | 0.01 | 0.00 | 85 | 1016.5 |
| 20260901200032 | 51 | 303 | 0.0 | 0.0 | 0.00 | 0.01 | 0.00 | 86 | 1016.4 |
| 20260901194527 | 51 | 314 | 0.0 | 0.0 | 0.00 | 0.01 | 0.00 | 86 | 1016.2 |
| 20260901193024 | 52 | 336 | 0.0 | 0.0 | 0.00 | 0.01 | 0.00 | 84 | 1016.2 |
| 20260901191523 | 52 | 255 | 0.0 | 0.0 | 0.00 | 0.01 | 0.00 | 84 | 1016.1 |
| 20260901190021 | 53 | 265 | 0.0 | 7.0 | 0.00 | 0.01 | 0.00 | 83 | 1015.8 |
| 20260901184520 | 53 | 240 | 1.7 | 10.4 | 0.00 | 0.01 | 0.00 | 82 | 1016.1 |
| 20260901183019 | 53 | 275 | 0.9 | 6.1 | 0.00 | 0.01 | 0.00 | 82 | 1016.2 |
| 20260901181519 | 53 | 355 | 1.7 | 6.1 | 0.00 | 0.01 | 0.00 | 82 | 1016.6 |
| 20260901180016 | 52 | 310 | 0.0 | 0.0 | 0.00 | 0.01 | 0.00 | 83 | 1016.7 |
| 20260901174515 | 52 | 246 | 0.0 | 0.0 | 0.00 | 0.01 | 0.00 | 84 | 1016.2 |
| 20260901173043 | 52 | 336 | 0.0 | 0.0 | 0.00 | 0.01 | 0.00 | 83 | 1016.3 |
| 20260901171511 | 53 | 315 | 0.0 | 4.3 | 0.00 | 0.01 | 0.00 | 84 | 1016.5 |
| 20260901170014 | 53 | 256 | 0.9 | 8.7 | 0.00 | 0.01 | 0.00 | 83 | 1017.3 |
| 20260901164508 | 53 | 249 | 0.0 | 5.2 | 0.00 | 0.01 | 0.00 | 81 | 1017.5 |
| 20260901163122 | 54 | 310 | 0.0 | 7.0 | 0.00 | 0.01 | 0.00 | 80 | 1017.3 |
| 20260901161511 | 53 | 268 | 0.9 | 6.1 | 0.00 | 0.01 | 0.00 | 81 | 1017.3 |
| 20260901160004 | 53 | 307 | 0.0 | 3.5 | 0.00 | 0.01 | 0.00 | 82 | 1017.1 |
| 20260901154559 | 53 | 285 | 0.0 | 5.2 | 0.00 | 0.01 | 0.00 | 83 | 1017.5 |
| 20260901153058 | 52 | 334 | 0.0 | 6.1 | 0.00 | 0.01 | 0.00 | 84 | 1017.9 |
| 20260901151557 | 52 | 282 | 1.7 | 5.2 | 0.00 | 0.01 | 0.00 | 84 | 1017.5 |
| 20260901150101 | 52 | 285 | 0.9 | 3.5 | 0.00 | 0.01 | 0.00 | 83 | 1017.9 |
| 20260901144555 | 52 | 325 | 0.0 | 4.3 | 0.00 | 0.01 | 0.00 | 83 | 1017.7 |
| 20260901143056 | 52 | 285 | 2.6 | 4.3 | 0.00 | 0.01 | 0.00 | 83 | 1017.6 |
| 20260901141550 | 52 | 283 | 0.0 | 0.0 | 0.00 | 0.01 | 0.00 | 83 | 1017.9 |
| 20260901140047 | 52 | 310 | 0.0 | 6.1 | 0.00 | 0.01 | 0.00 | 83 | 1017.9 |
| 20260901134600 | 53 | 315 | 0.0 | 5.2 | 0.00 | 0.01 | 0.01 | 82 | 1018.2 |
| 20260901133046 | 53 | 353 | 0.9 | 7.0 | 0.00 | 0.01 | 0.01 | 82 | 1018.2 |
| 20260901131542 | 53 | 341 | 0.0 | 0.0 | 0.00 | 0.01 | 0.01 | 82 | 1018.5 |
| 20260901130040 | 53 | 287 | 0.0 | 0.0 | 0.00 | 0.01 | 0.01 | 82 | 1018.9 |
| 20260901124545 | 53 | 312 | 0.0 | 0.0 | 0.00 | 0.01 | 0.01 | 84 | 1019.2 |
| 20260901123036 | 53 | 348 | 0.0 | 0.0 | 0.00 | 0.01 | 0.01 | 83 | 1019.3 |
| 20260901121534 | 53 | 317 | 0.0 | 0.0 | 0.00 | 0.01 | 0.01 | 83 | 1019.4 |
| 20260901120044 | 53 | 301 | 0.0 | 4.3 | 0.00 | 0.01 | 0.01 | 82 | 1019.5 |
| 20260901114536 | 53 | 311 | 0.0 | 0.0 | 0.00 | 0.01 | 0.01 | 82 | 1019.8 |
| 20260901113053 | 53 | 332 | 0.0 | 0.0 | 0.00 | 0.01 | 0.01 | 82 | 1019.9 |
| 20260901111529 | 53 | 311 | 0.0 | 0.0 | 0.00 | 0.01 | 0.01 | 81 | 1020.1 |
| 20260901110028 | 54 | 327 | 0.0 | 0.0 | 0.00 | 0.01 | 0.01 | 80 | 1020.1 |
| 20260901104532 | 54 | 327 | 0.0 | 0.0 | 0.00 | 0.01 | 0.01 | 79 | 1020.1 |
| 20260901103027 | 54 | 268 | 0.0 | 0.0 | 0.00 | 0.01 | 0.01 | 77 | 1020.0 |
| 20260901101626 | 55 | 258 | 0.0 | 0.0 | 0.00 | 0.01 | 0.01 | 76 | 1020.1 |
| 20260901100026 | 55 | 327 | 0.0 | 0.0 | 0.00 | 0.01 | 0.01 | 75 | 1020.3 |
| 20260901094526 | 56 | 321 | 0.0 | 0.0 | 0.00 | 0.01 | 0.01 | 74 | 1020.2 |
| 20260901093025 | 56 | 265 | 0.0 | 0.0 | 0.00 | 0.01 | 0.01 | 73 | 1020.1 |
| 20260901091527 | 56 | 311 | 0.0 | 0.0 | 0.00 | 0.01 | 0.01 | 73 | 1020.1 |
| 20260901090024 | 56 | 237 | 0.0 | 3.5 | 0.00 | 0.01 | 0.01 | 73 | 1020.5 |
| 20260901084531 | 56 | 308 | 0.0 | 0.0 | 0.00 | 0.01 | 0.01 | 72 | 1020.6 |
| 20260901083023 | 57 | 273 | 0.0 | 0.0 | 0.00 | 0.01 | 0.01 | 70 | 1020.6 |
| 20260901081523 | 57 | 319 | 0.0 | 0.0 | 0.00 | 0.01 | 0.01 | 69 | 1020.3 |
| 20260901080022 | 58 | 310 | 0.0 | 0.0 | 0.00 | 0.01 | 0.01 | 67 | 1020.3 |
| 20260901074526 | 59 | 280 | 0.0 | 0.0 | 0.00 | 0.01 | 0.01 | 66 | 1020.2 |
| 20260901073020 | 60 | 255 | 0.0 | 1.7 | 0.00 | 0.01 | 0.01 | 65 | 1020.4 |
| 20260901071520 | 61 | 292 | 0.0 | 0.0 | 0.00 | 0.01 | 0.01 | 62 | 1020.4 |
| 20260901070018 | 62 | 292 | 0.0 | 6.1 | 0.00 | 0.01 | 0.01 | 57 | 1020.4 |
| 20260901064521 | 63 | 242 | 0.0 | 7.0 | 0.00 | 0.01 | 0.01 | 54 | 1020.6 |
| 20260901063017 | 63 | 221 | 0.9 | 10.4 | 0.00 | 0.01 | 0.01 | 51 | 1020.5 |
| 20260901061515 | 64 | 242 | 0.9 | 14.8 | 0.00 | 0.01 | 0.01 | 52 | 1020.6 |
| 20260901060014 | 64 | 274 | 0.9 | 11.3 | 0.00 | 0.01 | 0.01 | 51 | 1020.6 |
| 20260901054514 | 64 | 270 | 4.3 | 15.6 | 0.00 | 0.01 | 0.01 | 50 | 1020.6 |
| 20260901053018 | 64 | 219 | 0.0 | 13.0 | 0.00 | 0.01 | 0.01 | 53 | 1020.7 |
| 20260901051512 | 64 | 254 | 0.0 | 7.8 | 0.00 | 0.01 | 0.01 | 56 | 1020.9 |
| 20260901050011 | 64 | 309 | 1.7 | 11.3 | 0.00 | 0.01 | 0.01 | 54 | 1021.0 |
| 20260901044514 | 64 | 301 | 0.9 | 13.0 | 0.00 | 0.01 | 0.01 | 50 | 1021.1 |
| 20260901043016 | 65 | 213 | 2.6 | 10.4 | 0.00 | 0.01 | 0.01 | 50 | 1021.3 |
| 20260901041506 | 64 | 279 | 3.5 | 15.6 | 0.00 | 0.01 | 0.01 | 50 | 1021.3 |
| 20260901040004 | 64 | 238 | 0.9 | 13.0 | 0.00 | 0.01 | 0.01 | 49 | 1021.4 |
| 20260901034501 | 65 | 236 | 0.0 | 12.2 | 0.00 | 0.01 | 0.01 | 51 | 1021.7 |
| 20260901033059 | 64 | 281 | 1.7 | 11.3 | 0.00 | 0.01 | 0.01 | 50 | 1022.0 |
| 20260901031559 | 64 | 213 | 0.9 | 13.0 | 0.00 | 0.01 | 0.01 | 51 | 1022.3 |
| 20260901030055 | 64 | 248 | 2.6 | 14.8 | 0.00 | 0.01 | 0.01 | 51 | 1022.5 |
| 20260901024552 | 63 | 275 | 0.9 | 12.2 | 0.00 | 0.01 | 0.01 | 51 | 1022.8 |
| 20260901023051 | 63 | 230 | 1.7 | 10.4 | 0.00 | 0.01 | 0.01 | 52 | 1023.1 |
| 20260901021607 | 63 | 250 | 0.9 | 10.4 | 0.00 | 0.01 | 0.01 | 57 | 1023.3 |
| 20260901020100 | 62 | 258 | 0.9 | 11.3 | 0.01 | 0.01 | 0.01 | 60 | 1023.7 |
| 20260901014539 | 62 | 258 | 0.9 | 8.7 | 0.01 | 0.01 | 0.01 | 65 | 1024.0 |
| 20260901013042 | 61 | 251 | 0.0 | 7.0 | 0.01 | 0.01 | 0.01 | 66 | 1024.2 |
| 20260901011539 | 60 | 287 | 0.0 | 1.7 | 0.01 | 0.01 | 0.01 | 69 | 1024.7 |
| 20260901010029 | 60 | 277 | 0.0 | 8.7 | 0.00 | 0.00 | 0.00 | 70 | 1025.0 |
| 20260901004526 | 60 | 234 | 0.0 | 8.7 | 0.00 | 0.00 | 0.00 | 69 | 1025.2 |
| 20260901003024 | 59 | 238 | 0.0 | 4.3 | 0.00 | 0.00 | 0.00 | 70 | 1025.4 |
| 20260901001525 | 58 | 301 | 0.0 | 6.1 | 0.00 | 0.00 | 0.00 | 72 | 1025.5 |
| 20260901000014 | 57 | 277 | 0.0 | 7.8 | 0.00 | 0.00 | 0.00 | 73 | 1025.8 |
| 20260831234512 | 56 | 303 | 0.0 | 7.8 | 0.00 | 0.00 | 0.00 | 72 | 1026.1 |
| 20260831233014 | 55 | 270 | 0.0 | 4.3 | 0.00 | 0.00 | 0.00 | 75 | 1026.4 |
| 20260831231504 | 55 | 257 | 0.0 | 3.5 | 0.00 | 0.00 | 0.00 | 76 | 1026.6 |
| 20260831230101 | 54 | 249 | 0.0 | 0.9 | 0.00 | 0.00 | 0.00 | 77 | 1026.9 |
| 20260831224557 | 53 | 344 | 0.0 | 0.0 | 0.00 | 0.00 | 0.00 | 79 | 1027.0 |
| 20260831223055 | 52 | 245 | 0.0 | 0.0 | 0.00 | 0.00 | 0.00 | 80 | 1027.1 |
| 20260831221553 | 52 | 261 | 0.0 | 0.0 | 0.00 | 0.00 | 0.00 | 79 | 1027.2 |
| 20260831220108 | 51 | 295 | 0.0 | 0.0 | 0.00 | 0.00 | 0.00 | 81 | 1027.0 |
| 20260831214549 | 50 | 329 | 0.0 | 0.0 | 0.00 | 0.00 | 0.00 | 84 | 1027.1 |
| 20260831213043 | 48 | 255 | 0.0 | 0.0 | 0.00 | 0.00 | 0.00 | 88 | 1027.2 |
| 20260831211538 | 46 | 279 | 0.0 | 0.0 | 0.00 | 0.00 | 0.00 | 92 | 1027.3 |
| 20260831210041 | 45 | 331 | 0.0 | 0.0 | 0.00 | 0.00 | 0.00 | 91 | 1027.3 |
| 20260831204634 | 44 | 320 | 0.0 | 0.0 | 0.00 | 0.00 | 0.00 | 91 | 1027.2 |